Hourly Data Report for October 29, 2014

All times are specified in Local Standard Time (LST). Add 1 hour to adjust for Daylight Saving Time where and when it is observed.

CHARLOTTETOWN A
PRINCE EDWARD ISLAND

46°17'21.000" N
63°07'09.000" W
48.50 m
8300301
71706
YYG

Download Data

Hourly Data (October 2014)
Hourly Data Report for October 29, 2014
Temp Definition
°C
Dew Point Temp Definition
°C
Rel Hum Definition
%
Wind Dir Definition
10's deg

Wind Spd Definition
km/h
Visibility Definition
km
Stn Press Definition
kPa
Hmdx Definition


Wind Chill Definition


Weather Definition


TIME
00:00 Legend Double Dagger 5.6 3.3 85 13 9 24.1 101.41     LegendNANA
01:00 Legend Double Dagger 5.4 3.4 87 12 10 24.1 101.39     LegendNANA
02:00 Legend Double Dagger 5.4 3.7 89 13 15 24.1 101.39     Cloudy
03:00 Legend Double Dagger 5.8 4.5 91 13 16 24.1 101.28     LegendNANA
04:00 Legend Double Dagger 6.1 4.8 91 16 19 19.3 101.29     Rain Showers
05:00 Legend Double Dagger 6.5 5.0 90 15 17 24.1 101.26     Cloudy
06:00 Legend Double Dagger 6.8 5.3 90 14 17 19.3 101.23     LegendNANA
07:00 Legend Double Dagger 6.5 5.3 92 13 16 19.3 101.20     LegendNANA
08:00 Legend Double Dagger 7.4 6.0 91 14 18 19.3 101.12     Cloudy
09:00 Legend Double Dagger 8.4 6.7 89 14 16 24.1 101.04     LegendNANA
10:00 Legend Double Dagger 9.1 7.2 88 14 18 24.1 100.95     LegendNANA
11:00 Legend Double Dagger 11.0 8.1 82 16 30 24.1 100.82     Cloudy
12:00 Legend Double Dagger 11.7 8.8 82 16 32 24.1 100.66     LegendNANA
13:00 Legend Double Dagger 12.5 9.9 84 16 30 24.1 100.54     LegendNANA
14:00 Legend Double Dagger 14.2 11.4 83 17 34 24.1 100.43     Cloudy
15:00 Legend Double Dagger 14.3 12.0 86 17 28 24.1 100.35     LegendNANA
16:00 Legend Double Dagger 14.5 12.6 88 15 21 24.1 100.25     LegendNANA
17:00 Legend Double Dagger 15.0 13.1 88 17 22 24.1 100.21     Cloudy
18:00 Legend Double Dagger 15.1 13.7 91 17 23 24.1 100.14     LegendNANA
19:00 Legend Double Dagger 14.4 13.5 94 18 20 19.3 100.11     LegendNANA
20:00 Legend Double Dagger 13.6 13.1 97 18 15 16.1 100.08     Cloudy
21:00 Legend Double Dagger 14.3 13.7 96 21 9 16.1 100.08     LegendNANA
22:00 Legend Double Dagger 14.5 13.9 96 19 10 12.9 100.01     LegendNANA
23:00 Legend Double Dagger 14.4 13.9 97 17 9 12.9 99.94     Cloudy

Notes on Data Quality.

Legend

  • E = Estimated
  • M = Missing
  • NA = Not Available
  • ‡ = Partner data that is not subject to review by the National Climate Archives
Date modified: